Date String (YYYY-MM-DD hh:mm:ss) UTC,Instrument flags,Ambient pressure (hPa),Sample flow (lpm),Bypass flow (lpm),Sample temperature (°C),Ambient temperature (°C),ASC tube jacket temperature (°C),LED temperature (°C),Box temperature (°C),Sample RH (%),Span deviation,Mass concentration (μg/m³),Mass concentration (μg/m³),Mass concentration (μg/m³)
DateTimeUTC,F1_M11,P_M11,Q1_M11,Q2_M11,T1_M11,T2_M11,T3_M11,T4_M11,T5_M11,U1_M11,ZSPAN_M11,X2_M11,X0_M11,X1_M11
2022-05-19 23:00:00,,0807.7,5.00,0.00,29.4,27.7,00.0,38.1,31.2,09.3,0000.0,0003.63,0013.09,0001.95
2022-05-19 23:01:00,,0807.7,5.00,0.00,29.3,27.1,00.0,38.0,30.9,09.3,0000.0,0003.61,0013.00,0001.96
2022-05-19 23:02:00,,0807.6,5.01,0.00,29.2,27.0,00.0,38.0,30.9,09.7,0000.0,0003.62,0013.06,0001.96
2022-05-19 23:03:00,,0807.7,5.01,0.00,29.2,27.1,00.0,38.0,30.9,09.3,0000.0,0003.59,0012.38,0001.96
2022-05-19 23:04:00,,0807.7,5.00,0.00,29.2,27.3,00.0,38.0,30.9,09.4,0000.0,0003.62,0012.20,0001.96
2022-05-19 23:05:00,,0807.5,5.00,0.00,29.2,27.5,00.0,38.0,31.0,09.2,0000.0,0003.62,0012.19,0001.97
2022-05-19 23:06:00,,0807.4,5.00,0.00,29.2,27.7,00.0,38.0,31.1,09.7,0000.0,0003.63,0011.06,0001.98
2022-05-19 23:07:00,,0807.4,4.99,0.00,29.2,27.9,00.0,38.0,31.2,09.5,0000.0,0003.66,0011.00,0002.01
2022-05-19 23:08:00,,0807.4,4.99,0.00,29.3,28.1,00.0,38.1,31.2,09.9,0000.0,0003.69,0010.22,0002.02
2022-05-19 23:09:00,,0807.5,5.00,0.00,29.3,28.3,00.0,38.1,31.3,09.8,0000.0,0003.70,0010.20,0002.03
2022-05-19 23:10:00,,0807.4,5.02,0.00,29.4,28.4,00.0,38.1,31.3,09.2,0000.0,0003.74,0010.00,0002.03
2022-05-19 23:11:00,,0807.4,4.99,0.00,29.4,28.5,00.0,38.1,31.4,09.2,0000.0,0003.79,0010.13,0002.04
2022-05-19 23:12:00,,0807.4,4.99,0.00,29.4,28.0,00.0,38.1,31.2,09.3,0000.0,0003.82,0010.46,0002.05
2022-05-19 23:13:00,,0807.6,5.00,0.00,29.3,27.3,00.0,38.1,31.0,09.6,0000.0,0003.85,0010.54,0002.06
2022-05-19 23:14:00,,0807.6,5.00,0.00,29.2,27.1,00.0,38.0,30.9,09.4,0000.0,0003.82,0010.81,0002.07
2022-05-19 23:15:00,,0807.8,5.00,0.00,29.2,27.1,00.0,38.0,30.9,09.1,0000.0,0003.81,0010.81,0002.09
2022-05-19 23:16:00,,0807.7,5.00,0.00,29.2,27.3,00.0,38.0,31.0,09.1,0000.0,0003.81,0010.61,0002.08
2022-05-19 23:17:00,,0807.8,5.00,0.00,29.2,27.5,00.0,38.0,31.0,09.1,0000.0,0003.80,0010.68,0002.09
2022-05-19 23:18:00,,0807.8,4.99,0.00,29.2,27.7,00.0,38.0,31.1,08.8,0000.0,0003.77,0010.62,0002.08
2022-05-19 23:19:00,,0807.6,4.99,0.00,29.3,27.9,00.0,38.1,31.2,09.0,0000.0,0003.74,0010.44,0002.07
2022-05-19 23:20:00,,0807.4,4.99,0.00,29.3,28.1,00.0,38.1,31.3,09.1,0000.0,0003.69,0010.41,0002.07
2022-05-19 23:21:00,,0807.4,5.00,0.00,29.3,28.3,00.0,38.1,31.3,09.0,0000.0,0003.61,0010.86,0002.06
2022-05-19 23:22:00,,0807.6,5.00,0.00,29.4,28.4,00.0,38.1,31.4,09.4,0000.0,0003.55,0010.88,0002.06
2022-05-19 23:23:00,,0807.6,5.00,0.00,29.4,28.0,00.0,38.1,31.2,08.8,0000.0,0003.53,0010.61,0002.06
2022-05-19 23:24:00,,0807.7,5.01,0.00,29.3,27.2,00.0,38.0,31.0,09.2,0000.0,0003.48,0010.26,0002.05
2022-05-19 23:25:00,,0807.4,5.00,0.00,29.2,27.0,00.0,38.0,30.9,09.0,0000.0,0003.45,0009.97,0002.05
2022-05-19 23:26:00,,0807.3,4.99,0.00,29.2,27.0,00.0,38.0,30.9,09.0,0000.0,0003.46,0010.01,0002.03
2022-05-19 23:27:00,,0807.3,5.01,0.00,29.2,27.2,00.0,38.0,30.9,08.9,0000.0,0003.45,0010.30,0002.04
2022-05-19 23:28:00,,0807.4,4.99,0.00,29.2,27.4,00.0,38.0,31.0,09.0,0000.0,0003.46,0010.62,0002.04
2022-05-19 23:29:00,,0807.6,5.01,0.00,29.2,27.6,00.0,38.0,31.1,09.1,0000.0,0003.46,0010.42,0002.02
2022-05-19 23:30:00,,0807.4,5.00,0.00,29.2,27.8,00.0,38.0,31.1,09.1,0000.0,0003.48,0010.81,0002.01
2022-05-19 23:31:00,,0807.5,5.00,0.00,29.2,28.0,00.0,38.1,31.2,09.4,0000.0,0003.51,0010.14,0001.99
2022-05-19 23:32:00,,0807.5,5.00,0.00,29.3,28.2,00.0,38.1,31.3,09.2,0000.0,0003.54,0009.56,0001.98
2022-05-19 23:33:00,,0807.2,4.99,0.00,29.3,28.3,00.0,38.1,31.3,09.1,0000.0,0003.51,0009.31,0001.96
2022-05-19 23:34:00,,0807.4,4.99,0.00,29.4,28.5,00.0,38.1,31.4,08.7,0000.0,0003.51,0009.40,0001.95
2022-05-19 23:35:00,,0807.4,5.00,0.00,29.4,28.3,00.0,38.1,31.3,08.7,0000.0,0003.55,0009.58,0001.93
2022-05-19 23:36:00,,0807.3,5.00,0.00,29.4,27.5,00.0,38.1,31.1,08.8,0000.0,0003.53,0009.70,0001.90
2022-05-19 23:37:00,,0807.3,5.00,0.00,29.3,27.1,00.0,38.0,31.0,09.1,0000.0,0003.53,0009.59,0001.87
2022-05-19 23:38:00,,0807.3,5.00,0.00,29.2,27.1,00.0,38.0,30.9,08.8,0000.0,0003.53,0009.34,0001.84
2022-05-19 23:39:00,,0807.4,4.99,0.00,29.2,27.2,00.0,38.0,30.9,08.9,0000.0,0003.56,0009.04,0001.83
2022-05-19 23:40:00,,0807.2,5.01,0.00,29.2,27.4,00.0,38.0,31.0,09.0,0000.0,0003.55,0009.19,0001.83
2022-05-19 23:41:00,,0807.4,5.01,0.00,29.2,27.6,00.0,38.0,31.1,08.9,0000.0,0003.53,0009.33,0001.82
2022-05-19 23:42:00,,0807.4,5.00,0.00,29.2,27.8,00.0,38.1,31.1,08.8,0000.0,0003.52,0009.50,0001.81
2022-05-19 23:43:00,,0807.4,4.99,0.00,29.3,28.0,00.0,38.1,31.2,08.9,0000.0,0003.49,0009.53,0001.80
2022-05-19 23:44:00,,0807.4,5.00,0.00,29.3,28.2,00.0,38.1,31.3,08.9,0000.0,0003.54,0010.21,0001.81
2022-05-19 23:45:00,,0807.4,5.01,0.00,29.3,28.3,00.0,38.1,31.3,09.0,0000.0,0003.54,0010.08,0001.81
2022-05-19 23:46:00,,0807.4,5.00,0.00,29.4,28.5,00.0,38.1,31.4,09.0,0000.0,0003.48,0010.13,0001.79
2022-05-19 23:47:00,,0807.4,5.01,0.00,29.4,28.1,00.0,38.1,31.3,08.9,0000.0,0003.47,0010.11,0001.81
2022-05-19 23:48:00,,0807.3,4.99,0.00,29.3,27.2,00.0,38.1,31.0,09.0,0000.0,0003.46,0010.72,0001.83
2022-05-19 23:49:00,,0807.4,5.01,0.00,29.2,26.9,00.0,38.0,30.9,09.1,0000.0,0003.42,0011.17,0001.85
2022-05-19 23:50:00,,0807.3,5.01,0.00,29.2,27.0,00.0,38.0,30.9,09.2,0000.0,0003.38,0011.13,0001.85
2022-05-19 23:51:00,,0807.2,5.00,0.00,29.2,27.2,00.0,38.0,30.9,09.1,0000.0,0003.39,0011.95,0001.85
2022-05-19 23:52:00,,0807.2,5.00,0.00,29.2,27.4,00.0,38.0,31.0,09.1,0000.0,0003.38,0012.25,0001.85
2022-05-19 23:53:00,,0807.4,4.99,0.00,29.2,27.6,00.0,38.0,31.0,09.6,0000.0,0003.42,0012.12,0001.85
2022-05-19 23:54:00,,0807.3,5.00,0.00,29.2,27.8,00.0,38.0,31.1,09.5,0000.0,0003.47,0012.75,0001.86
2022-05-19 23:55:00,,0807.2,5.01,0.00,29.3,28.0,00.0,38.1,31.2,08.9,0000.0,0003.51,0012.54,0001.87
2022-05-19 23:56:00,,0807.2,5.01,0.00,29.3,28.2,00.0,38.1,31.3,09.1,0000.0,0003.51,0012.52,0001.87
2022-05-19 23:57:00,,0807.1,4.99,0.00,29.3,28.3,00.0,38.1,31.3,09.0,0000.0,0003.57,0012.92,0001.89
2022-05-19 23:58:00,,0807.2,5.00,0.00,29.4,28.5,00.0,38.1,31.4,08.7,0000.0,0003.58,0012.72,0001.88
2022-05-19 23:59:00,,0807.2,5.00,0.00,29.4,28.3,00.0,38.1,31.4,08.9,0000.0,0003.62,0012.22,0001.88
